Weather History for KMAF - October, 2013

Change the Weather History Date:

Wednesday, October 9, 2013

  Actual Average Record
Temperature  
Mean Temperature 73 °F 67 °F  
Max Temperature 88 °F 80 °F 92 °F (1965)
Min Temperature 57 °F 54 °F 36 °F (1970)
Degree Days  
Heating Degree Days 0 2  
Month to date heating degree days 4 14  
Since 1 July heating degree days 4 25  
Cooling Degree Days 8 4  
Month to date cooling degree days 74 45  
Year to date cooling degree days 2633 2224  
Growing Degree Days 22 (Base 50)    
Moisture  
Dew Point 44 °F    
Average Humidity 37    
Maximum Humidity 53    
Minimum Humidity 20    
Precipitation  
Precipitation 0.00 in 0.07 in 2.04 in (1985)
Month to date precipitation 0.00 0.60  
Year to date precipitation 4.84 12.18  
Snow  
Snow 0.00 in - - ()
Month to date snowfall 0.0  
Since 1 July snowfall 0.0  
Since 1 September snowfall 0.0  
Snow Depth 0.00 in    
Sea Level Pressure  
Sea Level Pressure 29.83 in    
Wind  
Wind Speed 14 mph (SSE)    
Max Wind Speed 21 mph    
Max Gust Speed 26 mph    
Visibility 10 miles    
Events      
T = Trace of Precipitation, MM = Missing Value Source: NWS Daily Summary

Daily Weather History Graph

Daily Weather History Graph

Search for Another Location

Airport or City:

Trip Planner

Search our weather history database for the weather conditions in past years. The results will help you decide how hot, cold, wet, or windy it might be!

Date:

Astronomy

Oct. 09, 2013 Rise Set
Actual Time 7:48 AM CDT 7:23 PM CDT
Civil Twilight 7:23 AM CDT 7:47 PM CDT
Nautical Twilight 6:55 AM CDT 8:16 PM CDT
Astronomical Twilight 6:27 AM CDT 8:44 PM CDT
Moon 12:31 PM CDT (10/9) 11:13 PM CDT (10/9)
Length of Visible Light 12h 23m
Length of Day
11h 35m
Waxing Crescent, 25% of the Moon is Illuminated
Oct 9
Waxing Crescent
Oct 11
First Quarter
Oct 18
Full
Oct 26
Last Quarter
Nov 3
New

Hourly Weather History & Observations

Time (CDT) Temp. Dew Point Humidity Pressure Visibility Wind Dir Wind Speed Gust Speed Precip Events Conditions
12:53 AM 66.0 °F 37.9 °F 36% 29.83 in 10.0 mi South 13.8 mph - N/A   Clear
1:53 AM 64.0 °F 37.0 °F 37% 29.83 in 10.0 mi South 11.5 mph - N/A   Clear
2:53 AM 63.0 °F 37.9 °F 40% 29.82 in 10.0 mi South 10.4 mph - N/A   Clear
3:53 AM 61.0 °F 37.9 °F 42% 29.82 in 10.0 mi South 11.5 mph - N/A   Clear
4:53 AM 61.0 °F 39.0 °F 44% 29.82 in 10.0 mi South 9.2 mph - N/A   Clear
5:53 AM 57.0 °F 39.0 °F 51% 29.83 in 10.0 mi SE 8.1 mph - N/A   Clear
6:53 AM 60.1 °F 41.0 °F 49% 29.84 in 10.0 mi SSE 11.5 mph - N/A   Clear
7:53 AM 62.1 °F 43.0 °F 50% 29.85 in 10.0 mi South 19.6 mph - N/A   Clear
8:53 AM 64.0 °F 44.1 °F 48% 29.87 in 10.0 mi South 18.4 mph - N/A   Clear
9:53 AM 69.1 °F 44.1 °F 40% 29.88 in 10.0 mi South 17.3 mph - N/A   Mostly Cloudy
10:53 AM 73.0 °F 44.1 °F 35% 29.88 in 10.0 mi South 18.4 mph - N/A   Clear
11:53 AM 78.1 °F 44.1 °F 30% 29.87 in 10.0 mi South 17.3 mph - N/A   Clear
12:53 PM 81.0 °F 45.0 °F 28% 29.86 in 10.0 mi South 13.8 mph - N/A   Clear
1:53 PM 84.0 °F 42.1 °F 23% 29.83 in 10.0 mi South 11.5 mph - N/A   Clear
2:53 PM 87.1 °F 41.0 °F 20% 29.80 in 10.0 mi South 11.5 mph 18.4 mph N/A   Clear
3:53 PM 88.0 °F 43.0 °F 21% 29.79 in 10.0 mi South 15.0 mph 23.0 mph N/A   Clear
4:53 PM 86.0 °F 46.0 °F 25% 29.79 in 10.0 mi SSE 16.1 mph 21.9 mph N/A   Clear
5:53 PM 84.9 °F 46.0 °F 26% 29.79 in 10.0 mi SSE 17.3 mph - N/A   Clear
6:53 PM 82.0 °F 46.9 °F 29% 29.80 in 10.0 mi South 16.1 mph - N/A   Clear
7:53 PM 77.0 °F 48.9 °F 37% 29.82 in 10.0 mi SSE 15.0 mph - N/A   Clear
8:53 PM 73.0 °F 48.9 °F 42% 29.84 in 10.0 mi SSE 9.2 mph - N/A   Clear
9:53 PM 71.1 °F 51.1 °F 49% 29.86 in 10.0 mi SSE 11.5 mph - N/A   Clear
10:53 PM 70.0 °F 51.1 °F 51% 29.86 in 10.0 mi SSE 11.5 mph - N/A   Clear
11:53 PM 69.1 °F 52.0 °F 54% 29.85 in 10.0 mi South 15.0 mph - N/A   Clear